Vorticity
5 5 5 5 4 4 3 4 3 2 1 1 4 4 2 4 6 5 4 5 6 6 6 7 9 11 11 10 11 11 11 11 10 9 8 7 6 5 5 5 6 7 8 8 8 9 11 12 12 12 12 12 12 11 12 11 9 10 12 12 12 12 11 11 10 10 10 9 10 11 10 10 11 10 10 9 9 10 11 10 10 10 10 10 9
5 6 6 6 5 4 3 3 2 1 1 2 5 5 4 4 6 5 4 5 6 6 6 7 9 11 11 11 11 11 11 11 10 9 8 7 6 5 6 6 6 6 6 6 6 6 7 10 12 12 13 13 13 11 11 12 11 10 11 12 12 11 11 11 11 10 11 10 9 10 10 10 10 11 11 9 9 10 10 10 9 9 9 9 8
5 6 6 6 5 5 4 4 3 2 2 4 6 5 4 4 6 5 4 4 6 6 6 7 10 11 11 12 12 11 11 11 11 9 9 8 7 6 6 7 7 6 6 5 4 5 5 7 9 11 12 13 14 14 13 13 12 10 10 11 11 11 11 11 10 10 11 11 10 10 10 11 10 10 10 10 10 9 9 9 8 8 8 8 9
5 5 5 5 5 5 5 4 3 3 4 5 6 4 3 4 5 5 5 5 5 6 6 7 10 11 11 12 13 11 10 11 11 9 9 8 8 8 7 7 7 7 6 5 4 5 7 8 8 9 11 12 13 15 14 14 13 10 9 10 11 11 10 10 10 10 11 11 11 11 11 11 11 10 9 9 9 9 9 8 8 8 8 7 8
5 5 5 5 5 6 5 4 3 3 4 5 5 4 3 5 5 4 5 5 5 6 6 7 10 11 11 12 14 12 11 11 10 9 9 9 8 8 7 8 8 7 6 6 6 7 8 10 10 11 12 12 13 15 15 14 13 11 9 9 11 12 11 10 9 10 12 12 11 11 12 12 11 9 9 9 8 7 8 8 9 9 8 9 8
5 4 5 5 6 7 6 5 4 4 4 5 5 4 4 4 4 4 6 6 5 5 5 7 11 11 10 12 14 13 11 10 10 9 9 9 8 8 8 8 8 7 6 5 6 8 10 11 12 13 14 13 13 15 17 15 14 12 11 10 11 12 11 11 11 11 12 12 11 11 12 12 11 9 8 9 8 8 7 8 9 9 9 9 8
5 5 5 5 6 7 6 5 6 5 4 5 4 3 3 4 4 5 6 6 5 5 6 7 11 11 10 12 14 13 12 11 9 9 9 8 8 8 8 8 7 6 5 5 8 11 12 14 14 14 15 15 15 15 16 16 15 13 12 11 11 12 13 12 11 11 12 12 11 10 11 11 11 9 8 8 8 7 7 8 9 9 9 7 7
5 4 5 6 5 6 6 6 6 5 4 3 2 3 3 3 4 5 6 6 6 6 6 8 12 11 10 12 13 13 12 10 9 9 8 8 8 9 8 8 7 4 4 7 11 14 15 16 17 16 16 16 17 17 16 16 15 14 12 11 12 13 14 13 12 11 12 12 9 9 9 10 10 9 8 9 9 9 8 8 9 10 10 7 7
5 5 5 5 5 6 7 7 7 5 4 3 3 5 4 2 4 6 5 6 7 7 6 9 12 11 10 12 13 13 11 9 8 8 8 8 9 9 9 7 4 4 7 11 15 16 17 18 18 17 18 18 18 17 17 16 15 14 13 13 13 13 13 13 11 10 11 11 9 9 8 8 8 6 6 8 9 8 8 8 8 10 12 11 9
5 5 5 5 5 6 6 7 7 5 4 4 5 6 4 2 4 6 6 7 8 7 7 9 11 11 12 13 13 12 10 8 8 8 8 8 9 9 7 5 4 7 11 14 16 17 18 19 19 17 18 19 19 19 18 16 16 15 15 15 13 12 11 11 11 10 9 9 10 9 8 8 7 5 5 6 6 7 8 9 8 9 9 10 10
4 5 5 6 6 6 5 5 6 6 5 5 7 7 3 2 4 6 7 8 7 7 8 10 11 12 12 12 12 11 9 8 9 9 8 8 8 7 5 4 7 11 14 16 17 18 19 19 18 19 20 19 19 19 18 17 17 17 16 15 13 11 9 9 10 11 11 10 10 9 8 7 6 5 6 6 4 4 5 6 7 7 8 8 8
3 4 4 5 5 4 4 5 5 6 6 6 7 6 3 3 5 7 7 6 6 8 9 10 12 12 12 12 11 11 9 8 8 8 8 7 6 5 5 7 11 14 16 17 18 19 19 19 19 20 20 20 20 19 18 17 17 17 15 14 12 11 10 9 9 10 11 12 12 10 7 7 6 5 7 7 6 5 6 5 4 4 6 7 6
3 3 3 4 5 4 3 4 5 6 6 7 7 5 3 4 5 6 5 5 7 8 9 12 13 12 11 12 12 11 9 8 8 7 6 6 5 6 7 10 14 16 17 19 19 19 19 18 20 21 20 20 20 19 18 17 17 17 16 14 11 9 9 10 10 10 10 11 12 11 9 8 6 4 4 6 6 7 8 8 5 3 4 5 6
4 4 4 4 5 4 4 5 5 5 7 8 6 4 3 4 5 5 5 5 6 8 11 14 14 11 10 11 12 11 8 7 7 6 5 5 6 8 11 13 16 19 20 20 19 19 19 19 20 20 19 19 19 19 18 17 17 17 18 17 14 10 10 10 10 11 10 10 10 10 11 12 10 6 4 4 6 7 8 9 8 7 6 4 5
5 5 5 5 6 6 5 5 5 6 7 6 4 3 4 4 4 5 5 5 6 10 15 16 12 10 10 11 11 11 8 6 6 5 6 7 8 11 14 16 19 20 20 20 19 19 19 19 20 18 17 18 18 18 18 17 16 16 16 18 17 11 9 9 9 11 13 11 10 10 12 13 12 7 3 2 3 5 7 9 8 8 7 7 7
7 7 6 6 6 5 4 5 6 6 5 3 2 3 4 4 5 5 5 6 9 14 16 14 10 9 10 11 11 9 6 5 5 6 7 9 12 15 17 19 21 21 20 19 20 20 19 19 18 17 17 18 17 16 17 17 16 15 14 16 17 14 10 8 7 10 13 13 12 10 11 12 11 8 5 4 4 5 6 8 7 7 7 7 9
8 7 5 5 4 3 5 6 5 4 3 2 1 3 4 5 5 5 6 9 13 16 14 10 9 10 11 10 9 7 5 5 6 7 10 13 15 18 20 21 21 20 19 19 19 19 19 17 16 16 16 16 16 15 16 17 16 15 13 14 15 15 12 8 8 9 10 12 13 11 11 11 10 9 7 6 6 5 5 6 6 7 8 8 10
8 6 5 4 3 3 4 5 5 4 3 1 2 5 7 7 6 6 9 12 14 14 11 9 10 10 10 8 6 5 5 6 8 10 13 16 18 20 22 22 21 19 19 19 19 19 17 16 15 15 16 16 16 16 16 16 15 14 13 13 15 16 13 9 8 7 8 11 12 11 10 9 8 8 7 5 4 2 3 4 5 7 9 9 11
7 5 4 3 3 2 3 5 6 5 3 3 6 8 8 7 8 8 10 13 14 12 10 10 10 8 7 6 5 5 6 8 11 14 17 19 21 22 22 21 20 19 18 18 19 18 17 16 14 15 15 15 15 15 15 16 16 13 11 12 14 17 17 15 12 9 8 11 12 11 11 10 8 6 4 3 3 2 3 6 8 10 12 11 11
6 4 3 2 1 3 5 7 6 4 4 6 8 8 8 8 8 9 11 13 13 10 9 8 8 6 6 6 5 6 8 11 14 17 20 22 23 22 22 19 18 18 17 18 18 17 16 16 14 14 15 14 14 14 14 16 17 15 12 10 10 13 16 19 21 19 17 16 14 12 12 13 14 13 11 10 8 8 9 10 10 10 11 10 10
4 2 2 2 3 6 7 7 6 4 6 7 8 8 9 8 7 9 12 13 10 8 7 6 6 6 6 6 6 8 11 15 18 21 23 24 23 21 20 18 17 17 17 17 17 17 16 16 15 14 15 15 15 15 15 16 17 17 15 12 9 8 9 12 16 19 21 21 20 17 13 10 11 12 11 10 10 11 12 11 10 10 10 9 9
3 3 3 4 6 8 7 6 5 5 7 8 9 9 7 6 8 11 12 10 7 6 5 6 6 6 6 7 9 12 16 19 22 24 25 25 23 21 19 17 16 16 17 17 17 16 16 15 15 15 14 15 15 15 16 16 17 18 18 16 13 11 9 8 8 10 14 16 18 20 18 16 14 12 11 10 10 11 11 10 10 10 10 12 13
4 4 4 6 8 7 5 5 6 8 9 10 9 7 5 7 10 11 10 7 5 5 6 6 6 6 8 10 13 17 21 23 23 25 26 24 22 19 17 16 16 16 16 16 16 16 16 15 15 14 14 14 14 13 14 14 15 17 19 19 18 15 11 9 7 7 9 10 12 15 17 19 21 21 21 19 15 13 13 15 17 17 18 19 18
4 5 6 7 6 5 5 7 9 10 10 8 5 5 7 9 10 8 7 5 5 5 6 6 7 8 10 14 18 20 23 24 25 25 24 22 20 18 16 16 15 16 16 16 16 16 16 15 14 14 13 13 13 12 13 12 12 13 14 16 18 19 17 15 12 9 7 7 7 8 10 14 16 17 18 17 16 16 17 17 18 19 19 19 16
6 6 6 6 5 6 8 10 10 8 6 4 5 6 8 8 8 6 5 4 5 6 6 6 8 11 14 18 21 23 24 25 25 24 22 20 18 16 16 16 16 16 16 17 16 16 14 14 13 13 13 13 13 13 13 13 12 12 11 11 12 13 15 16 16 15 13 11 9 7 5 6 8 9 11 11 10 10 10 9 9 10 11 11 9
6 6 6 6 7 9 10 9 7 5 4 4 6 7 8 7 5 4 4 4 5 5 6 8 11 15 19 22 24 26 26 25 24 22 20 17 16 15 16 16 17 17 16 16 15 14 14 14 15 15 16 16 16 16 15 15 15 15 15 14 13 12 12 12 12 12 12 12 12 11 9 7 4 4 5 7 7 6 4 5 6 7 7 6 5
6 6 7 7 8 9 9 7 5 4 5 6 8 9 7 5 4 4 5 5 6 6 8 13 18 22 24 25 27 27 25 24 23 20 17 15 15 16 17 17 16 16 15 15 15 15 17 18 19 19 20 20 20 20 20 20 19 18 17 17 16 16 15 14 13 12 12 12 12 12 13 13 10 7 4 3 3 3 3 4 5 5 5 5 4
7 6 6 7 8 8 7 5 4 5 7 8 8 6 5 5 5 6 5 5 6 9 14 19 22 25 25 25 27 27 25 23 21 18 16 16 16 17 17 16 16 16 16 17 19 20 22 23 25 26 28 29 30 30 29 30 29 29 28 27 25 24 22 20 19 17 15 14 13 12 12 13 13 13 12 10 8 6 4 3 2 2 2 2 2
5 6 7 9 8 7 5 4 5 7 8 8 6 4 4 5 5 5 6 8 11 16 21 24 25 25 27 27 28 27 25 22 19 17 17 18 18 18 17 17 17 19 21 23 24 27 29 30 32 32 32 32 31 30 29 29 29 29 30 30 31 31 31 31 31 29 27 26 24 21 19 16 15 13 12 12 12 12 10 9 9 8 8 8 8
6 7 8 8 6 4 5 7 8 8 6 5 6 6 6 5 5 6 10 16 21 24 26 26 26 28 29 29 27 26 24 22 19 19 19 19 19 19 19 21 23 25 26 28 30 31 30 29 27 24 21 19 17 15 14 14 14 14 15 15 16 17 19 21 23 25 27 29 30 31 31 30 29 27 25 23 21 19 17 16 14 14 13 13 13
8 8 7 6 5 6 8 8 7 6 5 5 5 6 6 7 10 14 19 23 25 26 26 27 29 30 30 29 27 24 22 21 21 21 20 20 21 22 24 26 28 29 30 29 28 25 21 17 15 12 11 10 10 11 11 11 11 11 11 11 11 11 11 11 11 12 13 15 17 20 22 23 26 29 30 32 32 32 32 29 26 24 22 20 19
7 6 6 7 8 8 8 6 5 6 6 6 6 5 8 14 19 23 26 26 25 26 28 30 31 30 28 28 26 23 22 21 21 22 22 23 24 26 27 29 30 29 27 23 19 15 12 10 10 10 10 11 11 12 12 13 13 13 13 13 13 13 13 13 13 13 13 12 12 12 12 13 14 15 16 19 21 23 25 26 27 28 27 26 25
6 6 7 8 8 7 6 6 7 7 6 6 8 11 15 20 24 25 26 27 27 29 31 32 31 29 27 25 23 22 22 22 22 23 24 26 27 28 28 28 26 23 19 15 12 11 10 10 11 11 11 12 12 12 12 12 12 12 12 12 12 12 12 13 13 13 13 14 14 14 14 13 13 13 13 14 14 14 15 16 18 21 23 25 26
7 8 8 7 6 6 7 7 7 7 8 10 14 19 22 24 23 24 26 28 30 31 31 30 30 28 25 23 22 21 22 22 23 25 26 27 27 26 24 22 19 15 12 10 10 11 11 11 11 11 11 11 11 11 12 12 12 13 12 12 12 13 13 13 13 14 14 14 14 14 14 14 14 15 14 14 14 15 15 15 16 18 21 23 25
8 7 6 6 7 7 7 7 7 10 14 18 21 23 25 25 27 29 30 31 32 31 29 28 27 26 23 21 21 21 22 23 25 26 26 24 23 20 18 16 13 10 9 10 11 11 11 11 11 11 11 11 11 12 12 13 13 13 14 14 14 14 14 14 14 14 14 14 14 14 14 15 14 14 15 16 16 17 17 17 19 21 23 25 26
7 7 8 8 8 7 8 9 13 17 20 23 24 25 26 29 31 32 32 32 31 30 29 27 25 23 22 20 20 21 22 23 24 23 21 20 17 15 13 11 10 10 10 10 11 11 11 11 11 11 11 11 11 12 12 13 14 14 14 14 14 13 14 14 14 14 14 15 15 16 16 16 16 16 17 17 18 19 20 20 22 24 26 25 20
8 9 8 7 8 10 13 16 20 23 24 25 26 29 31 32 31 30 31 31 30 28 28 26 23 20 19 19 20 21 21 21 20 19 17 15 13 11 10 9 9 9 10 11 12 12 11 11 11 11 11 11 12 13 13 14 15 14 13 13 13 13 14 14 15 16 17 18 19 19 19 19 19 19 20 20 20 21 22 23 25 26 23 17 12
8 8 8 10 13 17 20 23 24 25 26 29 31 32 31 30 29 29 30 29 28 26 25 23 20 18 17 17 18 19 18 17 16 15 14 13 12 10 10 9 9 10 11 11 12 12 12 12 12 11 11 12 13 14 14 14 14 14 14 16 17 18 19 20 21 21 21 21 22 22 21 21 21 21 21 20 21 23 25 27 27 23 15 11 12
8 10 13 16 20 22 23 25 26 28 30 32 31 29 27 27 28 29 29 27 25 24 21 19 17 16 15 15 15 14 13 12 11 11 11 11 10 9 10 10 10 11 11 12 12 13 12 12 12 12 13 14 14 14 14 15 17 20 22 24 25 25 26 26 25 24 23 22 21 20 20 20 20 20 20 22 25 27 27 22 18 14 12 13 15
13 17 19 21 24 26 26 28 30 32 32 30 25 24 25 27 28 28 26 24 22 20 18 16 15 14 13 12 12 11 10 9 10 10 10 11 11 11 12 12 12 13 13 13 13 13 13 13 13 13 13 14 15 17 21 24 27 28 28 27 25 24 23 22 22 21 20 18 18 19 19 19 20 21 23 26 27 22 16 11 11 14 16 16 16
19 21 24 26 27 28 30 32 32 31 27 22 20 23 27 28 28 26 23 20 19 17 15 14 14 13 12 11 11 10 10 11 11 12 12 13 13 14 14 14 14 14 14 15 15 15 14 14 14 14 16 19 23 26 28 28 27 24 22 20 20 19 19 19 19 19 19 19 19 20 20 20 22 24 25 24 20 14 12 13 15 16 16 18 21
24 26 27 28 30 31 32 32 29 24 20 18 22 26 28 27 26 23 20 19 18 17 16 15 15 15 14 13 14 14 14 15 15 15 15 15 15 15 16 16 16 16 17 17 16 16 15 15 17 19 24 27 28 27 24 22 20 19 19 20 21 21 21 22 21 22 22 22 21 21 21 23 24 25 23 20 17 15 15 14 14 16 21 24 22
28 29 29 30 31 32 30 26 21 18 17 20 25 28 28 26 24 21 19 19 18 17 16 16 17 17 16 17 17 18 18 18 18 18 18 18 19 19 19 19 19 19 18 17 16 15 17 20 24 26 27 25 22 20 19 18 18 19 20 21 21 22 22 23 23 23 23 23 22 22 24 26 26 24 21 18 16 14 13 14 19 23 23 17 10
29 29 29 31 30 28 24 19 16 16 19 24 27 29 28 25 22 19 17 17 17 17 17 16 16 17 17 18 18 18 18 18 17 18 19 19 19 20 21 21 21 19 17 16 17 20 23 26 27 24 22 19 18 18 18 17 17 18 20 22 23 23 23 23 23 23 23 22 23 25 27 26 24 20 16 13 12 13 17 21 22 18 11 7 7
28 28 29 29 26 22 19 16 15 18 23 27 29 28 27 24 20 16 16 16 16 16 17 17 17 17 18 17 17 16 15 15 16 17 18 19 20 21 22 21 19 17 18 20 23 24 25 25 22 19 17 17 16 16 16 15 16 20 23 24 24 23 22 22 23 23 23 24 26 29 26 21 16 13 11 13 16 20 21 19 13 8 8 12 15
27 27 27 24 20 18 16 15 16 21 26 28 28 27 25 22 18 16 15 15 16 17 17 18 18 18 17 16 14 11 11 14 17 19 20 22 22 22 20 18 18 20 23 24 25 23 22 19 17 15 15 15 15 15 15 15 18 22 25 25 24 23 24 24 24 24 26 29 30 26 18 12 10 12 15 19 21 18 13 8 6 8 13 14 13
25 25 23 20 17 16 14 15 18 23 25 25 25 25 23 21 18 16 16 16 17 18 19 20 20 18 15 11 9 9 13 18 22 23 24 24 21 19 19 20 23 25 24 23 21 19 17 16 15 14 14 14 15 15 15 17 22 25 26 25 24 24 24 25 27 29 30 28 22 15 11 11 15 18 19 18 13 8 6 7 10 13 13 11 8
23 22 20 17 16 15 14 15 18 21 21 21 21 22 21 19 18 17 17 17 18 18 19 19 18 14 9 8 10 16 22 26 26 24 22 19 19 20 23 25 25 23 21 20 18 16 14 14 14 14 14 16 16 16 17 21 26 26 24 23 23 24 27 30 31 29 24 17 12 11 13 16 18 17 13 8 6 6 9 12 12 10 9 7 6
21 20 17 16 15 14 13 14 16 18 18 19 19 20 19 18 17 17 17 16 16 17 17 17 13 9 7 12 20 26 29 26 22 19 18 20 23 26 26 24 21 19 17 16 15 13 13 13 13 15 17 17 16 18 22 25 25 22 21 23 26 28 30 28 23 17 13 11 13 16 17 16 14 10 7 7 10 12 12 11 8 6 6 6 7
19 18 16 15 15 13 12 14 15 14 15 17 19 20 20 19 18 17 16 15 14 14 13 12 9 10 16 23 28 27 23 19 17 20 23 26 27 25 22 19 18 16 15 14 13 12 13 14 15 17 18 18 18 22 25 24 21 20 22 26 26 24 21 17 14 13 14 16 16 15 13 10 9 7 8 11 14 13 10 8 6 5 5 6 6
18 17 15 14 14 13 12 13 13 12 13 16 18 21 23 23 22 21 19 17 15 13 13 13 16 21 26 26 23 18 16 19 23 27 28 27 23 20 18 17 15 13 13 12 12 12 14 16 18 19 19 19 23 26 25 21 19 20 21 20 18 16 15 15 16 16 16 14 12 11 9 8 8 9 12 13 11 7 4 3 3 3 5 5 4
Height
5677 5673 5669 5665 5661 5657 5653 5650 5646 5641 5637 5634 5630 5626 5622 5617 5613 5607 5602 5597 5593 5588 5583 5578 5573 5567 5562 5557 5552 5548 5543 5539 5534 5530 5525 5521 5517 5513 5508 5504 5500 5496 5492 5488 5484 5481 5478 5474 5470 5467 5464 5461 5458 5456 5453 5450 5447 5445 5443 5441 5439 5437 5435 5434 5432 5430 5428 5428 5427 5425 5424 5423 5422 5421 5420 5419 5418 5416 5415 5414 5413 5412 5411 5410 5409
5671 5667 5663 5659 5655 5651 5648 5644 5640 5636 5632 5628 5624 5620 5615 5611 5606 5601 5595 5590 5586 5581 5576 5571 5566 5560 5555 5550 5546 5541 5536 5532 5527 5523 5518 5514 5510 5506 5501 5497 5493 5489 5485 5481 5477 5473 5470 5466 5463 5459 5456 5453 5450 5448 5445 5443 5440 5437 5435 5433 5431 5430 5428 5426 5425 5423 5421 5420 5420 5419 5417 5417 5415 5414 5414 5413 5412 5410 5409 5408 5407 5406 5405 5404 5403
5665 5661 5657 5653 5649 5645 5642 5638 5634 5630 5626 5621 5617 5613 5608 5604 5599 5594 5589 5584 5579 5574 5569 5564 5559 5553 5548 5543 5538 5534 5529 5525 5520 5515 5511 5507 5503 5499 5494 5490 5485 5481 5477 5473 5469 5466 5462 5458 5455 5451 5448 5445 5442 5440 5437 5435 5433 5430 5427 5425 5423 5422 5420 5418 5417 5416 5414 5413 5412 5412 5411 5410 5409 5408 5407 5406 5405 5404 5403 5402 5401 5401 5400 5398 5397
5659 5655 5651 5647 5643 5639 5635 5631 5627 5623 5619 5614 5610 5606 5601 5597 5592 5587 5582 5576 5571 5566 5562 5557 5552 5546 5541 5536 5531 5526 5522 5517 5513 5508 5503 5500 5496 5491 5487 5482 5478 5474 5470 5466 5462 5458 5454 5450 5447 5443 5440 5436 5433 5430 5428 5426 5424 5422 5419 5417 5415 5414 5412 5411 5409 5408 5407 5405 5404 5404 5404 5403 5402 5401 5400 5399 5398 5398 5397 5396 5395 5394 5394 5393 5391
5652 5648 5644 5641 5637 5633 5629 5625 5620 5616 5612 5607 5603 5598 5594 5589 5584 5579 5574 5569 5564 5559 5554 5549 5544 5539 5533 5528 5523 5519 5514 5509 5505 5500 5496 5492 5488 5483 5479 5474 5470 5466 5462 5458 5454 5450 5446 5442 5438 5435 5431 5428 5424 5421 5419 5417 5415 5413 5411 5409 5407 5406 5404 5403 5402 5401 5400 5398 5397 5396 5396 5396 5395 5394 5393 5392 5392 5391 5391 5390 5389 5388 5387 5387 5386
5645 5642 5638 5634 5630 5627 5622 5618 5613 5609 5604 5600 5595 5591 5586 5581 5576 5571 5566 5561 5556 5551 5546 5541 5536 5531 5525 5520 5516 5511 5506 5501 5497 5492 5488 5484 5480 5475 5471 5466 5462 5458 5453 5449 5445 5441 5437 5433 5429 5425 5422 5419 5415 5413 5410 5408 5405 5404 5402 5400 5399 5397 5396 5395 5394 5393 5392 5391 5390 5389 5389 5388 5388 5387 5387 5386 5385 5384 5384 5383 5383 5382 5381 5380 5379
5639 5635 5631 5627 5623 5619 5615 5611 5606 5602 5597 5593 5588 5583 5579 5574 5569 5563 5558 5553 5548 5543 5538 5533 5528 5523 5517 5513 5508 5503 5498 5493 5488 5484 5479 5475 5471 5467 5462 5458 5453 5449 5444 5440 5436 5432 5427 5423 5419 5416 5412 5409 5406 5403 5401 5398 5396 5395 5393 5392 5390 5389 5388 5387 5386 5385 5385 5384 5383 5382 5382 5381 5381 5380 5380 5379 5378 5378 5377 5376 5376 5375 5375 5374 5373
5632 5628 5624 5620 5616 5612 5608 5604 5599 5595 5590 5585 5580 5576 5571 5566 5561 5556 5551 5546 5540 5535 5530 5525 5520 5514 5509 5504 5500 5495 5490 5485 5480 5475 5471 5466 5462 5458 5453 5449 5444 5440 5435 5430 5426 5421 5417 5413 5409 5406 5402 5399 5396 5393 5391 5389 5387 5386 5384 5383 5382 5381 5380 5379 5378 5378 5377 5377 5376 5376 5375 5374 5374 5373 5373 5372 5372 5371 5370 5369 5368 5367 5367 5367 5367
5625 5621 5617 5613 5609 5604 5600 5596 5592 5587 5582 5578 5573 5568 5563 5558 5553 5547 5542 5537 5532 5527 5522 5517 5511 5506 5501 5496 5491 5486 5481 5476 5471 5467 5462 5457 5453 5448 5444 5439 5435 5430 5425 5420 5416 5411 5407 5403 5399 5395 5392 5389 5386 5384 5381 5379 5378 5376 5375 5374 5373 5372 5372 5371 5371 5370 5370 5369 5369 5368 5368 5368 5367 5367 5366 5366 5365 5365 5364 5363 5362 5361 5360 5359 5360
5619 5614 5610 5606 5601 5597 5593 5588 5583 5579 5574 5570 5565 5560 5555 5549 5544 5538 5533 5528 5523 5518 5513 5508 5502 5497 5492 5487 5482 5476 5472 5467 5462 5457 5453 5448 5444 5439 5435 5429 5425 5420 5415 5410 5405 5400 5396 5392 5389 5385 5382 5379 5377 5374 5372 5370 5368 5367 5366 5365 5364 5364 5363 5363 5363 5362 5362 5362 5362 5361 5361 5361 5360 5360 5359 5359 5359 5358 5358 5357 5356 5355 5354 5352 5352
5611 5607 5603 5598 5594 5589 5585 5580 5575 5570 5566 5561 5556 5551 5545 5540 5535 5529 5524 5519 5514 5509 5503 5498 5493 5488 5483 5478 5472 5467 5462 5457 5453 5448 5443 5438 5434 5430 5426 5420 5414 5409 5405 5400 5394 5389 5385 5382 5378 5375 5372 5369 5367 5365 5363 5361 5359 5358 5357 5356 5356 5355 5355 5355 5355 5354 5354 5354 5354 5354 5354 5354 5353 5353 5353 5352 5352 5351 5351 5351 5350 5349 5348 5347 5346
5604 5600 5595 5591 5586 5581 5577 5572 5567 5562 5557 5552 5547 5542 5536 5531 5526 5520 5515 5510 5504 5499 5494 5488 5483 5478 5473 5468 5462 5457 5452 5447 5443 5438 5433 5427 5423 5419 5416 5411 5405 5398 5393 5388 5383 5378 5374 5371 5368 5365 5362 5359 5357 5355 5353 5351 5350 5349 5348 5348 5347 5347 5346 5346 5346 5346 5346 5346 5346 5346 5346 5346 5346 5346 5346 5345 5345 5344 5344 5344 5344 5343 5342 5341 5340
5596 5592 5588 5583 5578 5573 5568 5563 5558 5553 5548 5543 5538 5532 5527 5522 5517 5511 5506 5500 5495 5489 5484 5478 5473 5468 5463 5458 5452 5446 5441 5437 5432 5428 5423 5417 5412 5408 5405 5401 5396 5389 5382 5376 5372 5367 5363 5360 5357 5354 5352 5349 5347 5345 5343 5342 5341 5340 5339 5339 5338 5338 5338 5338 5338 5338 5338 5338 5338 5338 5338 5339 5338 5338 5338 5338 5337 5337 5337 5337 5337 5337 5336 5335 5334
5588 5584 5580 5575 5570 5565 5560 5555 5549 5544 5539 5534 5528 5523 5518 5512 5507 5502 5496 5490 5485 5479 5474 5468 5463 5457 5452 5447 5442 5436 5430 5426 5422 5417 5412 5407 5401 5397 5392 5388 5384 5379 5373 5366 5361 5357 5353 5349 5347 5344 5342 5340 5338 5336 5334 5333 5332 5332 5331 5330 5329 5329 5329 5329 5329 5329 5330 5330 5330 5330 5331 5331 5331 5331 5331 5331 5330 5330 5330 5330 5330 5330 5329 5328 5327
5581 5576 5571 5567 5562 5556 5551 5546 5540 5535 5530 5525 5519 5514 5508 5503 5497 5492 5486 5480 5475 5470 5464 5458 5452 5446 5440 5436 5431 5426 5420 5415 5410 5405 5400 5395 5390 5385 5381 5375 5371 5367 5362 5357 5351 5347 5343 5339 5337 5334 5332 5330 5328 5326 5325 5324 5324 5323 5322 5321 5321 5321 5321 5321 5321 5321 5321 5321 5321 5322 5322 5323 5323 5323 5323 5323 5323 5322 5323 5323 5322 5323 5323 5321 5320
5572 5568 5563 5557 5552 5547 5542 5537 5531 5526 5521 5515 5510 5504 5498 5492 5487 5481 5475 5470 5464 5459 5453 5447 5441 5435 5430 5424 5420 5415 5409 5403 5398 5394 5389 5383 5378 5374 5369 5364 5359 5354 5350 5345 5341 5337 5333 5330 5327 5325 5323 5321 5319 5317 5316 5316 5315 5314 5313 5313 5312 5312 5312 5312 5312 5313 5313 5313 5313 5313 5314 5314 5315 5315 5315 5315 5315 5315 5315 5316 5315 5315 5316 5315 5313
5564 5558 5553 5548 5543 5538 5533 5527 5522 5516 5511 5505 5500 5494 5488 5482 5476 5470 5465 5459 5453 5448 5441 5435 5429 5424 5419 5413 5408 5404 5398 5392 5386 5381 5376 5371 5366 5362 5357 5352 5347 5342 5338 5334 5330 5327 5323 5320 5317 5315 5313 5311 5309 5308 5307 5307 5306 5305 5304 5304 5304 5304 5303 5303 5303 5304 5304 5304 5304 5305 5305 5306 5306 5306 5306 5307 5307 5307 5307 5308 5308 5308 5308 5308 5308
5555 5549 5544 5539 5533 5528 5523 5518 5512 5507 5501 5495 5489 5484 5478 5472 5466 5460 5454 5449 5443 5437 5431 5424 5418 5412 5407 5402 5397 5393 5387 5381 5375 5369 5363 5358 5353 5349 5345 5340 5335 5331 5327 5324 5320 5316 5313 5310 5308 5306 5304 5302 5300 5299 5298 5298 5297 5296 5295 5295 5295 5294 5294 5294 5295 5296 5296 5295 5296 5296 5297 5298 5298 5298 5298 5298 5299 5299 5299 5300 5300 5301 5301 5301 5301
5546 5540 5535 5529 5524 5519 5514 5508 5502 5497 5491 5485 5478 5473 5467 5461 5456 5450 5444 5438 5432 5426 5420 5414 5408 5402 5396 5391 5385 5380 5376 5370 5363 5357 5351 5345 5341 5337 5332 5328 5324 5320 5316 5313 5310 5306 5303 5300 5298 5296 5295 5293 5291 5290 5289 5288 5288 5287 5286 5286 5286 5285 5285 5285 5286 5287 5287 5287 5287 5288 5289 5289 5290 5290 5290 5290 5291 5291 5291 5292 5292 5293 5294 5293 5294
5536 5531 5525 5519 5514 5509 5504 5498 5492 5486 5481 5474 5467 5461 5456 5451 5446 5440 5433 5427 5421 5415 5409 5404 5397 5391 5385 5379 5374 5368 5363 5358 5351 5345 5339 5334 5329 5324 5320 5316 5312 5309 5305 5302 5299 5297 5294 5290 5288 5286 5285 5283 5281 5280 5280 5279 5279 5278 5278 5278 5277 5276 5276 5277 5277 5277 5278 5279 5279 5279 5280 5281 5281 5282 5283 5283 5283 5283 5284 5284 5285 5286 5286 5286 5286
5527 5521 5515 5509 5504 5498 5493 5487 5482 5475 5469 5463 5456 5450 5445 5440 5435 5429 5422 5416 5410 5404 5398 5392 5386 5380 5373 5367 5362 5356 5350 5345 5340 5334 5328 5322 5317 5312 5309 5305 5301 5298 5295 5292 5289 5286 5284 5281 5279 5276 5275 5274 5272 5271 5270 5270 5270 5269 5269 5269 5268 5268 5268 5268 5268 5268 5269 5270 5270 5271 5271 5272 5273 5274 5275 5275 5275 5276 5276 5277 5278 5278 5279 5279 5279
5516 5510 5504 5499 5493 5488 5482 5477 5471 5464 5458 5452 5446 5440 5434 5429 5423 5417 5411 5405 5399 5393 5387 5381 5374 5368 5361 5354 5348 5343 5338 5332 5327 5322 5316 5311 5306 5301 5297 5294 5290 5287 5285 5282 5279 5276 5274 5272 5269 5267 5266 5264 5263 5262 5261 5260 5260 5260 5260 5259 5259 5259 5260 5260 5260 5260 5261 5261 5261 5262 5262 5263 5264 5265 5266 5267 5268 5268 5269 5270 5271 5271 5272 5272 5272
5506 5500 5494 5488 5483 5477 5472 5466 5460 5454 5447 5441 5435 5429 5423 5417 5411 5406 5399 5393 5387 5381 5375 5368 5362 5355 5348 5341 5334 5329 5324 5319 5314 5309 5304 5299 5295 5291 5287 5283 5280 5277 5274 5272 5269 5267 5264 5262 5260 5258 5257 5255 5254 5253 5252 5252 5251 5251 5251 5250 5250 5250 5250 5251 5251 5252 5252 5253 5253 5254 5254 5255 5256 5257 5258 5259 5260 5261 5262 5263 5264 5264 5265 5264 5265
5496 5490 5484 5478 5472 5467 5461 5455 5449 5443 5437 5431 5424 5418 5412 5405 5400 5394 5388 5381 5375 5369 5363 5356 5350 5343 5336 5329 5322 5315 5311 5306 5301 5296 5292 5287 5283 5279 5276 5273 5270 5267 5264 5262 5259 5257 5255 5253 5251 5249 5247 5246 5245 5244 5243 5243 5242 5242 5242 5241 5241 5242 5242 5242 5243 5243 5244 5244 5245 5246 5246 5247 5248 5249 5250 5251 5252 5254 5255 5256 5257 5258 5258 5258 5258
5487 5481 5475 5468 5462 5456 5450 5444 5438 5432 5426 5420 5414 5407 5400 5394 5388 5382 5376 5369 5363 5357 5350 5343 5337 5330 5324 5318 5311 5304 5298 5293 5288 5283 5279 5275 5271 5268 5265 5262 5259 5257 5254 5252 5249 5247 5245 5243 5241 5239 5238 5237 5236 5235 5234 5234 5233 5233 5233 5233 5233 5233 5233 5234 5234 5235 5235 5236 5237 5238 5238 5240 5241 5242 5242 5243 5245 5247 5248 5249 5251 5251 5252 5252 5252
5477 5471 5465 5458 5452 5445 5439 5433 5427 5422 5415 5409 5403 5396 5390 5383 5377 5371 5364 5357 5351 5344 5338 5331 5325 5318 5311 5305 5299 5293 5287 5282 5277 5271 5267 5263 5260 5257 5254 5251 5249 5246 5244 5242 5240 5237 5235 5233 5231 5230 5228 5227 5226 5225 5225 5224 5224 5224 5224 5224 5224 5224 5224 5225 5225 5226 5227 5227 5228 5229 5230 5232 5233 5234 5235 5236 5238 5240 5241 5243 5244 5245 5245 5246 5246
5467 5461 5455 5448 5442 5435 5429 5422 5416 5410 5404 5397 5391 5384 5378 5371 5365 5359 5353 5345 5338 5332 5325 5318 5312 5306 5299 5293 5288 5281 5275 5271 5266 5261 5256 5253 5249 5246 5244 5241 5239 5236 5233 5231 5229 5227 5225 5223 5221 5220 5218 5217 5217 5216 5215 5215 5215 5214 5214 5214 5215 5215 5215 5216 5216 5217 5218 5219 5219 5221 5222 5223 5225 5226 5227 5229 5231 5233 5234 5236 5237 5237 5238 5239 5239
5457 5451 5444 5438 5431 5425 5419 5412 5405 5398 5391 5385 5379 5373 5365 5357 5350 5345 5340 5333 5326 5319 5313 5306 5299 5293 5287 5282 5277 5272 5265 5259 5255 5251 5247 5243 5240 5237 5234 5231 5229 5226 5223 5221 5219 5217 5215 5214 5212 5210 5209 5208 5208 5207 5206 5206 5206 5206 5206 5206 5206 5206 5206 5207 5208 5208 5209 5210 5211 5212 5214 5215 5216 5218 5219 5221 5223 5225 5227 5228 5229 5230 5231 5232 5233
5447 5440 5434 5427 5421 5414 5408 5401 5394 5387 5379 5372 5366 5360 5354 5347 5338 5330 5324 5319 5312 5306 5300 5294 5288 5282 5275 5270 5265 5262 5256 5250 5245 5240 5237 5234 5231 5228 5225 5222 5219 5216 5214 5211 5209 5207 5206 5204 5203 5202 5202 5201 5200 5200 5199 5199 5199 5198 5198 5198 5198 5198 5198 5199 5199 5200 5201 5202 5202 5204 5205 5206 5208 5209 5211 5213 5215 5217 5219 5220 5221 5222 5223 5224 5225
5436 5430 5423 5417 5410 5403 5396 5390 5383 5376 5369 5361 5352 5344 5338 5333 5327 5318 5310 5303 5297 5291 5285 5280 5275 5270 5264 5258 5252 5249 5245 5241 5236 5231 5227 5224 5221 5218 5216 5213 5210 5208 5205 5203 5201 5200 5198 5197 5197 5196 5196 5195 5195 5194 5194 5193 5193 5193 5193 5193 5192 5192 5192 5192 5193 5193 5194 5194 5195 5196 5197 5198 5200 5201 5203 5205 5207 5209 5211 5212 5213 5214 5215 5216 5218
5425 5419 5412 5405 5398 5392 5385 5378 5371 5364 5357 5349 5342 5332 5323 5316 5310 5304 5297 5290 5283 5277 5271 5266 5260 5256 5252 5247 5241 5236 5233 5230 5226 5222 5218 5214 5211 5209 5207 5205 5202 5200 5198 5196 5195 5194 5193 5192 5192 5191 5191 5190 5190 5189 5189 5189 5188 5188 5188 5188 5187 5187 5187 5187 5188 5188 5188 5189 5190 5190 5191 5192 5193 5195 5196 5198 5199 5201 5203 5204 5205 5206 5207 5209 5210
5414 5407 5400 5394 5387 5380 5373 5366 5359 5351 5344 5336 5329 5322 5313 5303 5294 5286 5280 5275 5270 5264 5259 5253 5247 5242 5238 5235 5231 5226 5222 5219 5216 5212 5209 5206 5203 5200 5199 5197 5195 5193 5191 5191 5190 5189 5188 5187 5187 5186 5186 5185 5185 5184 5184 5183 5183 5183 5182 5182 5182 5182 5182 5182 5182 5182 5183 5184 5184 5185 5186 5187 5188 5189 5190 5192 5193 5195 5196 5197 5198 5199 5200 5202 5204
5403 5396 5389 5382 5375 5367 5360 5353 5346 5339 5331 5324 5316 5309 5301 5294 5284 5275 5266 5259 5253 5250 5246 5242 5236 5231 5226 5223 5220 5217 5213 5210 5207 5203 5200 5198 5195 5193 5192 5190 5189 5187 5186 5186 5185 5184 5184 5183 5182 5181 5181 5180 5179 5179 5178 5178 5177 5177 5177 5176 5176 5176 5176 5177 5177 5177 5178 5178 5179 5180 5181 5182 5183 5184 5185 5187 5188 5189 5191 5192 5193 5194 5195 5196 5198
5392 5385 5377 5370 5362 5355 5348 5340 5333 5326 5319 5311 5303 5295 5288 5281 5274 5267 5259 5250 5241 5235 5232 5229 5226 5222 5217 5213 5210 5208 5205 5202 5199 5196 5193 5191 5188 5187 5186 5185 5184 5183 5182 5181 5180 5179 5179 5178 5177 5176 5176 5175 5174 5173 5173 5172 5172 5171 5171 5170 5170 5171 5171 5171 5172 5172 5173 5173 5174 5175 5176 5176 5178 5179 5180 5182 5183 5184 5185 5187 5188 5189 5191 5192 5194
5380 5373 5366 5358 5351 5343 5336 5328 5321 5313 5305 5297 5289 5282 5274 5267 5261 5255 5249 5243 5235 5228 5222 5218 5216 5213 5209 5206 5203 5200 5197 5195 5192 5190 5187 5185 5183 5182 5181 5180 5179 5178 5177 5177 5176 5175 5174 5173 5172 5171 5170 5170 5169 5168 5167 5167 5166 5166 5165 5165 5165 5165 5165 5166 5166 5167 5168 5168 5169 5170 5171 5171 5172 5174 5175 5176 5178 5179 5181 5182 5184 5185 5187 5189 5191
5368 5361 5353 5346 5339 5331 5324 5316 5308 5300 5292 5284 5276 5268 5262 5255 5249 5242 5237 5232 5227 5222 5217 5212 5208 5205 5202 5199 5196 5194 5191 5189 5186 5184 5182 5180 5179 5177 5176 5175 5174 5173 5172 5171 5171 5170 5169 5168 5167 5166 5165 5164 5163 5162 5162 5161 5161 5160 5160 5159 5159 5159 5160 5160 5161 5162 5162 5163 5164 5165 5166 5166 5167 5169 5171 5172 5173 5175 5177 5178 5180 5182 5184 5186 5189
5356 5348 5341 5333 5325 5317 5310 5302 5294 5286 5279 5271 5264 5257 5250 5243 5237 5232 5227 5222 5218 5214 5210 5206 5202 5198 5195 5193 5190 5188 5186 5183 5181 5179 5178 5176 5175 5173 5172 5171 5170 5169 5168 5166 5165 5164 5164 5163 5162 5161 5160 5159 5158 5157 5156 5156 5155 5155 5154 5154 5154 5154 5154 5155 5156 5156 5157 5158 5159 5160 5161 5162 5163 5165 5166 5168 5170 5172 5173 5175 5177 5180 5182 5185 5187
5343 5335 5327 5319 5311 5303 5295 5287 5280 5273 5266 5259 5252 5245 5239 5233 5227 5222 5217 5213 5210 5206 5203 5200 5197 5193 5189 5186 5184 5182 5180 5178 5176 5174 5173 5172 5170 5169 5167 5166 5165 5164 5163 5162 5161 5160 5158 5157 5156 5155 5154 5153 5153 5152 5151 5150 5150 5149 5149 5148 5148 5148 5149 5149 5150 5151 5152 5153 5154 5155 5156 5158 5159 5161 5163 5165 5167 5169 5171 5173 5176 5178 5181 5183 5186
5330 5322 5314 5306 5298 5290 5282 5275 5267 5260 5254 5247 5241 5234 5228 5223 5218 5213 5209 5205 5202 5199 5196 5193 5191 5188 5185 5182 5179 5177 5175 5173 5171 5169 5168 5167 5165 5164 5162 5161 5160 5159 5158 5157 5156 5155 5153 5152 5151 5150 5149 5148 5147 5147 5146 5145 5144 5144 5143 5143 5143 5143 5144 5145 5145 5147 5148 5149 5150 5151 5153 5155 5157 5159 5161 5163 5165 5167 5170 5172 5175 5177 5180 5182 5185
5316 5308 5301 5293 5285 5277 5270 5263 5256 5250 5243 5237 5230 5224 5219 5214 5209 5205 5202 5198 5195 5192 5190 5187 5185 5183 5180 5177 5175 5172 5170 5169 5167 5165 5163 5162 5160 5159 5157 5156 5155 5154 5152 5151 5151 5149 5148 5147 5146 5145 5144 5143 5142 5141 5141 5140 5139 5139 5139 5139 5139 5139 5140 5141 5142 5143 5144 5145 5147 5149 5151 5153 5155 5157 5159 5161 5164 5166 5169 5172 5174 5177 5179 5182 5184
5302 5295 5287 5280 5273 5265 5258 5252 5246 5240 5234 5228 5222 5216 5210 5206 5202 5198 5195 5192 5189 5186 5183 5181 5179 5177 5175 5172 5170 5168 5166 5164 5162 5160 5158 5157 5155 5154 5152 5151 5149 5148 5147 5146 5145 5144 5143 5142 5141 5140 5139 5138 5138 5137 5136 5136 5135 5135 5135 5135 5135 5136 5136 5137 5138 5140 5141 5143 5145 5147 5149 5151 5153 5155 5158 5160 5163 5166 5169 5172 5174 5177 5179 5182 5184
5289 5282 5275 5268 5262 5255 5248 5242 5236 5230 5225 5219 5214 5208 5203 5199 5196 5192 5189 5186 5183 5180 5178 5175 5173 5171 5169 5167 5165 5163 5161 5159 5157 5155 5153 5152 5150 5149 5147 5146 5144 5143 5142 5141 5140 5140 5139 5138 5137 5136 5135 5134 5134 5133 5133 5133 5132 5132 5132 5132 5132 5132 5133 5134 5135 5137 5139 5141 5143 5145 5147 5149 5152 5154 5157 5160 5163 5166 5169 5172 5175 5177 5180 5182 5185
5277 5270 5264 5258 5252 5246 5240 5233 5228 5222 5216 5211 5206 5201 5197 5193 5190 5187 5184 5181 5178 5176 5173 5170 5168 5166 5163 5161 5160 5158 5156 5154 5152 5150 5148 5147 5145 5143 5142 5141 5140 5139 5138 5137 5136 5135 5135 5134 5133 5132 5132 5131 5131 5131 5131 5130 5130 5130 5130 5130 5130 5130 5131 5132 5134 5135 5137 5139 5142 5144 5146 5149 5152 5155 5158 5161 5164 5167 5170 5173 5175 5178 5181 5184 5186
5266 5260 5254 5248 5243 5238 5232 5227 5221 5215 5209 5204 5199 5195 5191 5188 5185 5182 5179 5176 5174 5171 5169 5166 5163 5161 5159 5157 5155 5153 5151 5149 5147 5145 5143 5142 5140 5138 5137 5136 5135 5135 5134 5133 5132 5132 5131 5131 5130 5130 5129 5129 5129 5129 5129 5129 5128 5128 5128 5128 5128 5129 5130 5131 5133 5134 5137 5139 5141 5144 5147 5149 5152 5156 5159 5162 5165 5168 5171 5174 5177 5180 5182 5185 5188
5258 5252 5246 5240 5235 5230 5225 5220 5215 5209 5203 5198 5193 5189 5186 5183 5180 5177 5174 5172 5169 5167 5164 5162 5159 5157 5155 5153 5151 5149 5147 5145 5143 5141 5139 5138 5136 5134 5133 5132 5132 5131 5130 5130 5129 5129 5129 5129 5128 5128 5128 5128 5128 5128 5128 5127 5127 5127 5127 5127 5127 5128 5129 5131 5132 5134 5137 5139 5142 5145 5148 5151 5154 5158 5161 5164 5167 5170 5173 5176 5179 5182 5185 5187 5190
5250 5244 5239 5234 5229 5224 5219 5214 5209 5203 5198 5193 5188 5184 5181 5178 5176 5173 5170 5168 5165 5163 5160 5158 5155 5153 5151 5149 5147 5145 5143 5141 5139 5137 5135 5134 5132 5131 5130 5129 5129 5128 5128 5127 5127 5127 5127 5127 5127 5127 5127 5127 5127 5127 5127 5127 5127 5126 5126 5127 5128 5129 5130 5131 5133 5135 5138 5141 5144 5147 5150 5153 5157 5160 5163 5166 5169 5172 5175 5178 5181 5184 5187 5189 5191
5243 5238 5233 5228 5223 5218 5213 5208 5203 5198 5193 5188 5184 5180 5177 5174 5171 5169 5166 5164 5161 5159 5156 5154 5152 5150 5148 5146 5144 5142 5139 5137 5135 5133 5132 5131 5129 5128 5128 5127 5127 5126 5126 5126 5126 5126 5127 5127 5127 5127 5127 5127 5127 5127 5127 5127 5126 5127 5127 5128 5129 5130 5131 5133 5135 5137 5140 5143 5146 5150 5153 5156 5160 5163 5166 5169 5172 5175 5178 5181 5184 5186 5188 5191 5193
5236 5231 5227 5222 5218 5213 5208 5204 5199 5194 5189 5184 5180 5176 5173 5170 5168 5165 5162 5160 5158 5155 5153 5151 5149 5147 5145 5143 5140 5138 5136 5134 5132 5131 5129 5128 5127 5126 5126 5125 5125 5125 5125 5126 5126 5126 5126 5127 5127 5127 5127 5127 5127 5127 5127 5127 5127 5128 5128 5129 5130 5131 5133 5135 5137 5140 5143 5146 5150 5153 5156 5160 5163 5166 5169 5173 5176 5179 5181 5184 5186 5188 5191 5193 5195
5230 5226 5221 5217 5213 5209 5204 5200 5195 5190 5186 5181 5177 5173 5170 5167 5164 5161 5159 5157 5155 5152 5150 5148 5146 5144 5141 5139 5137 5135 5133 5131 5130 5128 5127 5126 5125 5125 5125 5125 5125 5125 5125 5126 5126 5126 5127 5127 5127 5127 5127 5127 5127 5127 5128 5128 5129 5129 5130 5131 5133 5134 5136 5138 5141 5144 5147 5151 5154 5157 5160 5163 5167 5170 5173 5176 5179 5181 5184 5186 5189 5191 5193 5195 5196
5224 5220 5216 5212 5209 5205 5200 5196 5192 5187 5183 5179 5174 5170 5166 5163 5160 5158 5156 5154 5151 5149 5147 5145 5143 5141 5138 5136 5134 5132 5131 5129 5128 5127 5126 5125 5124 5124 5124 5125 5125 5125 5126 5126 5127 5127 5127 5127 5127 5128 5128 5128 5128 5128 5129 5130 5131 5132 5133 5135 5136 5138 5140 5143 5146 5149 5152 5155 5158 5161 5164 5168 5171 5174 5177 5179 5182 5184 5187 5189 5191 5193 5195 5196 5198
5219 5215 5212 5208 5205 5201 5197 5193 5189 5185 5181 5176 5172 5168 5164 5160 5157 5154 5152 5150 5148 5146 5144 5142 5140 5138 5136 5134 5132 5130 5129 5128 5126 5125 5125 5124 5124 5125 5125 5125 5126 5126 5127 5127 5128 5128 5128 5128 5128 5128 5129 5129 5129 5130 5131 5132 5134 5135 5137 5138 5140 5143 5145 5148 5151 5153 5156 5159 5163 5166 5169 5172 5175 5177 5180 5182 5185 5187 5189 5191 5193 5195 5196 5198 5199